EN

Hourly Weather Luckeesarai

Today, 26 November, Thursday

Time Temperature Precipitation Wind Pressure Humidity
00:00 +21°C° 0 mm 1 mps 757 mmHg 46%
01:00 +20°C° 0 mm 1 mps 757 mmHg 47%
02:00 +18°C° 0 mm 0 mps 757 mmHg 48%
03:00 +17°C° 0 mm 0 mps 756 mmHg 49%
04:00 +17°C° 0 mm 0 mps 756 mmHg 49%
05:00 +17°C° 0 mm 0 mps 756 mmHg 50%
06:00 +16°C° 0 mm 0 mps 757 mmHg 54%
07:00 +18°C° 0 mm 0 mps 757 mmHg 50%
08:00 +20°C° 0 mm 0 mps 758 mmHg 47%
09:00 +22°C° 0 mm 0 mps 758 mmHg 43%
10:00 +23°C° 0 mm 0 mps 758 mmHg 40%
11:00 +27°C° 0 mm 1 mps 758 mmHg 38%
12:00 +29°C° 0 mm 1 mps 758 mmHg 35%
13:00 +29°C° 0 mm 1 mps 757 mmHg 34%
14:00 +30°C° 0 mm 1 mps 757 mmHg 32%
15:00 +30°C° 0 mm 1 mps 756 mmHg 31%
16:00 +28°C° 0 mm 1 mps 756 mmHg 34%
17:00 +27°C° 0 mm 1 mps 756 mmHg 38%
18:00 +23°C° 0 mm 0 mps 756 mmHg 41%
19:00 +22°C° 0 mm 0 mps 757 mmHg 42%
20:00 +22°C° 0 mm 0 mps 757 mmHg 44%
21:00 +22°C° 0 mm 0 mps 758 mmHg 45%
22:00 +21°C° 0 mm 0 mps 758 mmHg 46%
23:00 +21°C° 0 mm 0 mps 758 mmHg 47%

Tomorrow, 27 November, Friday

Time Temperature Precipitation Wind Pressure Humidity
00:00 +21°C° 0 mm 0 mps 757 mmHg 47%
01:00 +23°C° 0 mm 1 mps 757 mmHg 48%
02:00 +23°C° 0 mm 1 mps 757 mmHg 48%
03:00 +22°C° 0 mm 1 mps 757 mmHg 48%
04:00 +22°C° 0 mm 1 mps 757 mmHg 48%
05:00 +22°C° 0 mm 1 mps 758 mmHg 47%
06:00 +21°C° 0 mm 2 mps 758 mmHg 47%
07:00 +23°C° 0 mm 2 mps 758 mmHg 47%
08:00 +23°C° 0 mm 2 mps 759 mmHg 47%
09:00 +24°C° 0 mm 2 mps 760 mmHg 46%
10:00 +25°C° 0 mm 2 mps 760 mmHg 44%
11:00 +26°C° 0 mm 2 mps 759 mmHg 41%
12:00 +27°C° 0 mm 2 mps 759 mmHg 38%
13:00 +28°C° 0 mm 1 mps 759 mmHg 36%
14:00 +28°C° 0 mm 1 mps 758 mmHg 35%
15:00 +29°C° 0 mm 1 mps 757 mmHg 33%
16:00 +27°C° 0 mm 1 mps 757 mmHg 36%
17:00 +26°C° 0 mm 1 mps 757 mmHg 39%
18:00 +25°C° 0 mm 1 mps 757 mmHg 42%
19:00 +24°C° 0 mm 1 mps 758 mmHg 43%
20:00 +23°C° 0 mm 1 mps 758 mmHg 45%
21:00 +21°C° 0 mm 2 mps 759 mmHg 47%
22:00 +21°C° 0 mm 2 mps 759 mmHg 48%
23:00 +20°C° 0 mm 2 mps 759 mmHg 50%

Day after tomorrow, 28 November, Saturday

Time Temperature Precipitation Wind Pressure Humidity
00:00 +20°C° 0 mm 2 mps 759 mmHg 51%
01:00 +19°C° 0 mm 2 mps 758 mmHg 53%
02:00 +19°C° 0 mm 2 mps 758 mmHg 54%
03:00 +18°C° 0 mm 3 mps 757 mmHg 55%
04:00 +18°C° 0 mm 3 mps 757 mmHg 55%
05:00 +18°C° 0 mm 3 mps 757 mmHg 56%
06:00 +17°C° 0 mm 3 mps 757 mmHg 57%
07:00 +19°C° 0 mm 2 mps 758 mmHg 53%
08:00 +20°C° 0 mm 2 mps 759 mmHg 49%
09:00 +23°C° 0 mm 2 mps 759 mmHg 44%
10:00 +25°C° 0 mm 3 mps 759 mmHg 39%
11:00 +27°C° 0 mm 3 mps 759 mmHg 35%
12:00 +29°C° 0 mm 3 mps 759 mmHg 30%
13:00 +30°C° 0 mm 3 mps 758 mmHg 27%
14:00 +30°C° 0 mm 3 mps 757 mmHg 25%
15:00 +31°C° 0 mm 3 mps 757 mmHg 23%
16:00 +29°C° 0 mm 3 mps 757 mmHg 26%
17:00 +27°C° 0 mm 2 mps 757 mmHg 30%
18:00 +25°C° 0 mm 2 mps 757 mmHg 33%
19:00 +24°C° 0 mm 2 mps 757 mmHg 35%
20:00 +23°C° 0 mm 2 mps 758 mmHg 36%
21:00 +22°C° 0 mm 1 mps 758 mmHg 38%
22:00 +22°C° 0 mm 1 mps 758 mmHg 39%
23:00 +21°C° 0 mm 1 mps 758 mmHg 41%

29 November, Sunday

Time Temperature Precipitation Wind Pressure Humidity
00:00 +21°C° 0 mm 1 mps 758 mmHg 42%
01:00 +19°C° 0 mm 2 mps 758 mmHg 43%
02:00 +19°C° 0 mm 2 mps 758 mmHg 45%
03:00 +18°C° 0 mm 2 mps 757 mmHg 46%
04:00 +18°C° 0 mm 2 mps 758 mmHg 48%
05:00 +17°C° 0 mm 2 mps 758 mmHg 49%
06:00 +17°C° 0 mm 2 mps 758 mmHg 50%
07:00 +18°C° 0 mm 2 mps 758 mmHg 47%
08:00 +20°C° 0 mm 2 mps 759 mmHg 43%
09:00 +23°C° 0 mm 2 mps 760 mmHg 40%
10:00 +25°C° 0 mm 2 mps 759 mmHg 36%
11:00 +27°C° 0 mm 3 mps 759 mmHg 32%
12:00 +29°C° 0 mm 3 mps 759 mmHg 27%
13:00 +29°C° 0 mm 3 mps 758 mmHg 26%
14:00 +30°C° 0 mm 3 mps 757 mmHg 24%
15:00 +30°C° 0 mm 3 mps 756 mmHg 22%
16:00 +28°C° 0 mm 3 mps 756 mmHg 26%
17:00 +26°C° 0 mm 2 mps 756 mmHg 29%
18:00 +24°C° 0 mm 2 mps 756 mmHg 32%
19:00 +23°C° 0 mm 2 mps 756 mmHg 34%
20:00 +23°C° 0 mm 2 mps 757 mmHg 35%
21:00 +22°C° 0 mm 1 mps 757 mmHg 37%
22:00 +21°C° 0 mm 1 mps 757 mmHg 38%
23:00 +21°C° 0 mm 1 mps 757 mmHg 39%

30 November, Monday

Time Temperature Precipitation Wind Pressure Humidity
00:00 +20°C° 0 mm 1 mps 757 mmHg 40%
01:00 +20°C° 0 mm 1 mps 756 mmHg 41%
02:00 +18°C° 0 mm 2 mps 756 mmHg 42%
03:00 +17°C° 0 mm 2 mps 756 mmHg 44%
04:00 +17°C° 0 mm 2 mps 756 mmHg 45%
05:00 +17°C° 0 mm 2 mps 756 mmHg 46%
06:00 +16°C° 0 mm 2 mps 756 mmHg 47%
07:00 +18°C° 0 mm 2 mps 757 mmHg 44%
08:00 +19°C° 0 mm 2 mps 758 mmHg 42%
09:00 +21°C° 0 mm 2 mps 758 mmHg 39%
10:00 +24°C° 0 mm 2 mps 758 mmHg 35%
11:00 +26°C° 0 mm 2 mps 758 mmHg 31%
12:00 +28°C° 0 mm 2 mps 758 mmHg 28%
13:00 +28°C° 0 mm 2 mps 757 mmHg 26%
14:00 +29°C° 0 mm 2 mps 756 mmHg 25%
15:00 +29°C° 0 mm 2 mps 756 mmHg 23%
16:00 +28°C° 0 mm 2 mps 756 mmHg 26%
17:00 +26°C° 0 mm 1 mps 756 mmHg 29%
18:00 +24°C° 0 mm 1 mps 756 mmHg 32%
19:00 +23°C° 0 mm 1 mps 756 mmHg 34%
20:00 +22°C° 0 mm 1 mps 757 mmHg 35%
21:00 +22°C° 0 mm 1 mps 757 mmHg 36%
22:00 +21°C° 0 mm 1 mps 757 mmHg 37%
23:00 +21°C° 0 mm 1 mps 757 mmHg 38%

1 December, Tuesday

Time Temperature Precipitation Wind Pressure Humidity
00:00 +20°C° 0 mm 1 mps 757 mmHg 39%
01:00 +20°C° 0 mm 1 mps 757 mmHg 40%
02:00 +19°C° 0 mm 1 mps 757 mmHg 41%
03:00 +19°C° 0 mm 1 mps 757 mmHg 42%
04:00 +18°C° 0 mm 1 mps 757 mmHg 44%
05:00 +18°C° 0 mm 1 mps 757 mmHg 45%
06:00 +16°C° 0 mm 1 mps 757 mmHg 46%
07:00 +19°C° 0 mm 1 mps 758 mmHg 43%
08:00 +21°C° 0 mm 1 mps 758 mmHg 40%
09:00 +22°C° 0 mm 1 mps 759 mmHg 37%
10:00 +24°C° 0 mm 1 mps 759 mmHg 34%
11:00 +26°C° 0 mm 1 mps 758 mmHg 30%
12:00 +28°C° 0 mm 2 mps 758 mmHg 26%
13:00 +29°C° 0 mm 1 mps 757 mmHg 25%
14:00 +29°C° 0 mm 1 mps 757 mmHg 24%
15:00 +30°C° 0 mm 1 mps 756 mmHg 22%
16:00 +28°C° 0 mm 1 mps 756 mmHg 25%
17:00 +26°C° 0 mm 1 mps 756 mmHg 28%
18:00 +22°C° 0 mm 0 mps 756 mmHg 31%
19:00 +21°C° 0 mm 0 mps 756 mmHg 32%
20:00 +23°C° 0 mm 1 mps 757 mmHg 34%
21:00 +22°C° 0 mm 1 mps 757 mmHg 35%
22:00 +21°C° 0 mm 1 mps 757 mmHg 36%
23:00 +21°C° 0 mm 1 mps 757 mmHg 37%
Show more